#timestamp,LO_Frequency,Hit,StdDev 
1607187615.6,286046999.8,N
1607187635.4,286047003.9,N
1607187655.2,286047003.3,N
1607187675.1,286047005.7,N
1607187676.0,286047005.7,N
1607187695.8,286047005.2,N
1607187715.6,286047007.3,N
1607187735.5,286047004.7,N
1607187755.3,286047002.9,N
1607187775.2,286047005.6,N
1607187795.9,286047002.9,N
1607187815.7,286047005.5,N
1607187835.6,286047003.7,N
1607187855.4,286047006.0,Y
1607187875.3,286047000.6,P
1607187895.1,286047001.0,N
1607187896.0,286047001.0,N
1607187915.8,286047000.9,N
1607187935.7,286046998.4,N
1607187955.5,286046996.5,N
1607187975.4,286046999.0,N
1607187995.2,286047000.6,N
1607188015.0,286047002.3,N
1607188015.9,286047002.3,N
1607188035.8,286047002.0,N
1607188055.6,286047001.5,N
1607188075.4,286047002.2,N
1607188095.3,286047004.2,N
1607188115.1,286047003.3,N
1607188135.9,286047001.6,N
1607188155.7,286046998.7,N
1607188175.5,286046998.0,N
1607188195.4,286046997.2,N
1607188215.2,286046996.7,N
1607188235.0,286046998.1,N
1607188235.9,286046998.1,N
1607188255.8,286046999.8,N
1607188275.6,286047000.7,N
1607188295.5,286047002.4,N
1607188315.3,286047001.9,N
1607188335.1,286047003.1,N
1607188355.9,286047007.8,Y
1607188375.7,286047007.0,P
1607188395.5,286047006.4,N
1607188415.4,286047006.6,N
1607188435.2,286047007.3,N
1607188455.1,286047007.0,N
1607188456.0,286047007.0,N
1607188475.8,286047005.7,N
1607188495.6,286047003.5,N
1607188515.5,286047006.2,N
1607188535.3,286047007.3,Y
1607188555.1,286047002.1,P
1607188575.9,286047003.0,N
1607188595.7,286047003.4,N
1607188615.6,286047004.2,Y
1607188635.4,286047005.1,P
1607188655.2,286047005.0,P
1607188675.1,286047007.6,P
1607188676.0,286047007.6,Y
1607188695.8,286047003.6,P
1607188715.7,286047006.4,P
1607188735.5,286047006.8,P
1607188755.3,286047005.0,Y
1607188775.2,286046998.2,P
1607188795.0,286046999.0,N
1607188795.9,286046999.0,N
1607188815.7,286046996.5,N
1607188835.6,286046997.0,N
1607188855.4,286047000.6,N
1607188875.3,286047002.0,N
1607188895.1,286046999.8,N
1607188896.0,286046999.8,N
1607188915.8,286046995.6,N
1607188935.7,286046994.0,N
1607188955.5,286046994.7,N
1607188975.3,286046992.0,N
1607188995.2,286046994.4,N
1607189015.0,286046992.2,N
1607189015.9,286046992.2,N
1607189035.8,286046994.6,N
1607189055.6,286046993.9,N
1607189075.4,286046994.0,N
1607189095.3,286046994.1,N
1607189115.1,286046993.6,N
1607189135.8,286046993.5,N
1607189155.7,286046995.3,N
1607189175.5,286046997.6,N
1607189195.4,286046997.1,N
1607189215.2,286046995.3,N
1607189235.0,286046997.5,N
1607189235.9,286046997.5,N
1607189255.8,286046996.6,N
1607189275.6,286046996.6,N
1607189295.4,286046999.0,N
1607189315.3,286046996.7,N
1607189335.1,286046997.0,N
1607189355.9,286047004.0,N
1607189375.7,286047000.2,N
1607189395.5,286047000.9,N
1607189415.4,286047000.2,N
1607189435.2,286046998.2,N
1607189455.0,286046996.7,N
1607189455.9,286046996.7,N
1607189475.8,286046999.6,N
1607189495.6,286047011.9,Y
1607189515.5,286046999.8,P
1607189535.3,286047002.7,N
1607189555.1,286046999.7,N
1607189575.9,286046998.9,N
1607189595.7,286047000.5,N
1607189615.5,286046999.1,N
1607189635.4,286046998.4,N
1607189655.2,286046998.3,N
1607189675.1,286047002.3,N
1607189676.0,286047002.3,N
1607189695.8,286047000.5,N
1607189715.6,286047000.6,N
1607189735.5,286046998.6,N
1607189755.3,286046996.6,N
1607189775.1,286046997.7,N
1607189795.9,286046998.2,N
1607189815.7,286046999.8,N
1607189835.6,286046999.0,N
1607189855.4,286047000.7,N
1607189875.2,286046997.1,N
1607189895.1,286046996.0,N
1607189896.0,286046996.0,N
1607189915.8,286046994.1,Y
1607189935.7,286046997.5,P
1607189955.5,286046997.3,P
1607189975.3,286046997.8,N
1607189995.2,286046995.3,Y
1607190015.9,286046996.7,P
1607190035.7,286046996.5,P
1607190055.6,286046998.4,N
1607190075.4,286046996.6,Y
1607190095.3,286047000.0,P
1607190115.1,286047000.7,N
1607190116.0,286047000.7,N
1607190135.8,286047000.6,N
1607190155.7,286047002.7,N
1607190175.5,286047002.4,N
1607190195.3,286046999.8,N
1607190215.2,286047004.3,N
1607190235.0,286047001.3,N
1607190235.9,286047001.3,N
1607190255.8,286047004.4,N
1607190275.6,286047004.2,N
1607190295.4,286047003.6,N
1607190315.3,286047003.7,N
1607190335.1,286047005.5,N
1607190355.8,286047001.7,N
1607190375.7,286047002.9,N
1607190395.5,286047004.1,N
1607190415.4,286047005.7,N
1607190435.2,286047003.2,N
1607190455.0,286047004.2,N
1607190455.9,286047004.2,N
1607190475.8,286047001.9,N
1607190495.6,286047002.7,N
1607190515.5,286047002.6,N
1607190535.3,286047002.7,N
1607190555.1,286047000.2,N
1607190575.9,286047004.1,N
1607190595.7,286047003.3,N
1607190615.5,286047003.8,N
1607190635.4,286047003.8,N
1607190655.2,286047002.1,N
1607190675.1,286047002.0,N
1607190676.0,286047002.0,N
1607190695.8,286047002.0,N
1607190715.6,286047000.2,N
1607190735.5,286047000.3,N
1607190755.3,286047004.3,N
1607190775.2,286047002.6,N
1607190795.9,286047002.0,N
1607190815.7,286046999.8,N
1607190835.6,286047002.7,N
1607190855.4,286047002.7,N
1607190875.3,286047002.2,N
1607190895.1,286047004.2,N
1607190896.0,286047004.2,Y
1607190915.8,286047000.5,P
1607190935.7,286047000.8,N
1607190955.5,286047000.9,N
1607190975.3,286047000.4,N
1607190995.2,286047001.5,N
1607191015.0,286047002.3,N
1607191015.9,286047002.3,N
1607191035.8,286046999.7,N
1607191055.6,286047000.6,N
1607191075.4,286046998.3,N
1607191095.3,286046999.4,N
1607191115.1,286046996.7,N
1607191135.8,286046997.3,N
1607191155.7,286046999.5,N
1607191175.5,286046999.5,N
1607191195.4,286046999.2,N
